Date String (YYYY-MM-DD hh:mm:ss) UTC,Instrument flags,Ambient pressure (hPa),Sample flow (lpm),Bypass flow (lpm),Sample temperature (°C),Ambient temperature (°C),ASC tube jacket temperature (°C),LED temperature (°C),Box temperature (°C),Sample RH (%),Span deviation,Mass concentration (μg/m³),Mass concentration (μg/m³),Mass concentration (μg/m³)
DateTimeUTC,F1_M11,P_M11,Q1_M11,Q2_M11,T1_M11,T2_M11,T3_M11,T4_M11,T5_M11,U1_M11,ZSPAN_M11,X0_M11,X2_M11,X1_M11
2022-12-24 00:00:00,,0830.1,5.00,0.00,22.3,20.6,00.0,31.2,24.0,03.6,0003.0,0019.60,0013.20,0012.48
2022-12-24 00:01:00,,0830.1,5.02,0.00,22.3,20.6,00.0,31.2,24.0,03.6,0003.2,0019.33,0012.95,0012.19
2022-12-24 00:02:00,,0830.1,5.04,0.00,22.4,21.4,00.0,31.2,24.2,03.5,0003.3,0019.62,0012.92,0012.12
2022-12-24 00:03:00,,0830.1,4.96,0.00,22.5,22.1,00.0,31.2,24.4,03.5,0003.2,0019.80,0012.99,0012.17
2022-12-24 00:04:00,,0830.1,5.01,0.00,22.5,22.0,00.0,31.2,24.4,03.5,0003.4,0019.97,0013.05,0012.20
2022-12-24 00:05:00,,0830.1,5.03,0.00,22.5,21.7,00.0,31.2,24.3,03.4,0003.3,0020.31,0013.00,0012.15
2022-12-24 00:06:00,,0830.0,4.97,0.00,22.5,21.3,00.0,31.2,24.2,03.5,0002.9,0021.04,0013.04,0012.16
2022-12-24 00:07:00,,0830.0,4.98,0.00,22.4,21.1,00.0,31.3,24.1,03.5,0003.1,0021.02,0013.01,0012.13
2022-12-24 00:08:00,,0830.1,5.02,0.00,22.4,20.9,00.0,31.3,24.1,03.6,0003.2,0020.97,0012.95,0012.04
2022-12-24 00:09:00,,0830.1,5.02,0.00,22.4,20.8,00.0,31.2,24.0,03.5,0003.2,0021.28,0013.01,0012.08
2022-12-24 00:10:00,,0830.1,4.97,0.00,22.3,20.6,00.0,31.2,24.0,03.5,0003.2,0021.19,0012.96,0012.04
2022-12-24 00:11:00,,0830.1,4.98,0.00,22.3,20.6,00.0,31.2,23.9,03.6,0002.6,0021.05,0012.86,0011.92
2022-12-24 00:12:00,,0830.1,5.03,0.00,22.3,21.2,00.0,31.2,24.1,03.6,0002.5,0020.99,0012.83,0011.91
2022-12-24 00:13:00,,0830.1,5.02,0.00,22.4,22.0,00.0,31.1,24.3,03.6,0002.2,0020.50,0012.72,0011.85
2022-12-24 00:14:00,,0830.1,4.95,0.00,22.5,22.0,00.0,31.2,24.3,03.6,0002.2,0020.18,0012.58,0011.73
2022-12-24 00:15:00,,0830.1,5.01,0.00,22.5,21.7,00.0,31.2,24.2,03.6,0002.5,0020.30,0012.40,0011.60
2022-12-24 00:16:00,,0829.9,5.02,0.00,22.4,21.4,00.0,31.2,24.2,03.7,0002.9,0020.08,0012.34,0011.54
2022-12-24 00:17:00,,0829.8,5.01,0.00,22.4,21.1,00.0,31.2,24.1,03.7,0003.5,0019.06,0012.19,0011.44
2022-12-24 00:18:00,,0829.9,4.97,0.00,22.4,20.9,00.0,31.2,24.0,03.7,0003.1,0018.83,0012.02,0011.29
2022-12-24 00:19:00,,0829.8,4.97,0.00,22.3,20.6,00.0,31.2,23.9,03.7,0003.2,0018.98,0011.93,0011.20
2022-12-24 00:20:00,,0829.9,5.03,0.00,22.3,20.4,00.0,31.2,23.9,03.7,0003.4,0018.91,0011.86,0011.11
2022-12-24 00:21:00,,0829.9,5.03,0.00,22.2,20.4,00.0,31.2,23.8,03.7,0003.1,0019.36,0011.73,0010.99
2022-12-24 00:22:00,,0829.9,4.98,0.00,22.3,21.0,00.0,31.1,24.0,03.7,0003.1,0019.24,0011.64,0010.91
2022-12-24 00:23:00,,0829.9,4.97,0.00,22.3,21.9,00.0,31.1,24.2,03.7,0003.0,0019.27,0011.65,0010.93
2022-12-24 00:24:00,,0829.9,5.03,0.00,22.4,22.1,00.0,31.1,24.3,03.7,0003.1,0019.33,0011.68,0010.94
2022-12-24 00:25:00,,0830.0,4.99,0.00,22.4,21.7,00.0,31.2,24.2,03.6,0003.2,0019.45,0011.80,0011.05
2022-12-24 00:26:00,,0829.9,4.97,0.00,22.4,21.4,00.0,31.2,24.1,03.6,0003.0,0019.84,0012.10,0011.29
2022-12-24 00:27:00,,0829.8,5.02,0.00,22.4,21.1,00.0,31.2,24.1,03.6,0002.8,0020.11,0012.26,0011.43
2022-12-24 00:28:00,,0829.9,5.02,0.00,22.3,20.9,00.0,31.2,24.0,03.6,0002.8,0020.39,0012.46,0011.61
2022-12-24 00:29:00,,0830.0,5.00,0.00,22.3,20.7,00.0,31.2,24.0,03.5,0003.0,0020.56,0012.59,0011.74
2022-12-24 00:30:00,,0829.9,4.96,0.00,22.3,20.6,00.0,31.2,23.9,03.5,0002.6,0020.36,0012.66,0011.82
2022-12-24 00:31:00,,0829.8,5.01,0.00,22.2,20.5,00.0,31.2,23.9,03.5,0002.2,0020.58,0012.77,0011.94
2022-12-24 00:32:00,,0829.8,5.02,0.00,22.2,21.0,00.0,31.1,24.0,03.5,0002.5,0020.50,0012.93,0012.07
2022-12-24 00:33:00,,0829.9,5.01,0.00,22.3,21.9,00.0,31.1,24.2,03.5,0002.6,0020.71,0013.06,0012.17
2022-12-24 00:34:00,,0829.9,4.97,0.00,22.4,22.1,00.0,31.1,24.3,03.5,0002.6,0021.07,0013.08,0012.19
2022-12-24 00:35:00,,0829.9,5.03,0.00,22.4,21.8,00.0,31.2,24.3,03.5,0002.5,0021.54,0013.15,0012.28
2022-12-24 00:36:00,,0829.9,5.00,0.00,22.4,21.4,00.0,31.2,24.2,03.5,0002.3,0021.71,0013.20,0012.31
2022-12-24 00:37:00,,0829.9,4.97,0.00,22.4,21.1,00.0,31.2,24.0,03.5,0002.1,0021.26,0013.12,0012.23
2022-12-24 00:38:00,,0829.9,5.02,0.00,22.3,20.9,00.0,31.2,24.0,03.5,0002.2,0020.87,0013.11,0012.24
2022-12-24 00:39:00,,0829.9,5.03,0.00,22.3,20.7,00.0,31.2,23.9,03.6,0001.8,0021.11,0013.12,0012.23
2022-12-24 00:40:00,,0829.9,5.01,0.00,22.3,20.6,00.0,31.2,23.9,03.6,0001.7,0021.10,0013.14,0012.27
2022-12-24 00:41:00,,0829.9,4.97,0.00,22.2,20.6,00.0,31.1,23.9,03.6,0002.1,0021.12,0013.21,0012.36
2022-12-24 00:42:00,,0829.9,4.99,0.00,22.3,21.4,00.0,31.1,24.0,03.6,0002.7,0021.66,0013.23,0012.40
2022-12-24 00:43:00,,0829.9,5.03,0.00,22.4,22.1,00.0,31.1,24.2,03.6,0002.3,0022.46,0013.29,0012.47
2022-12-24 00:44:00,,0829.9,4.99,0.00,22.4,21.9,00.0,31.1,24.3,03.6,0002.2,0022.47,0013.31,0012.51
2022-12-24 00:45:00,,0829.9,4.97,0.00,22.4,21.5,00.0,31.1,24.2,03.6,0002.9,0022.03,0013.31,0012.54
2022-12-24 00:46:00,,0829.9,5.02,0.00,22.4,21.2,00.0,31.2,24.1,03.6,0003.5,0021.67,0013.30,0012.51
2022-12-24 00:47:00,,0829.9,5.03,0.00,22.3,21.0,00.0,31.2,24.0,03.6,0003.8,0021.51,0013.24,0012.47
2022-12-24 00:48:00,,0829.9,5.00,0.00,22.3,20.8,00.0,31.2,23.9,03.6,0003.9,0021.93,0013.19,0012.47
2022-12-24 00:49:00,,0829.8,4.97,0.00,22.3,20.6,00.0,31.1,23.9,03.6,0003.8,0021.90,0013.12,0012.42
2022-12-24 00:50:00,,0829.8,4.99,0.00,22.2,20.5,00.0,31.1,23.9,03.6,0003.8,0021.97,0013.02,0012.34
2022-12-24 00:51:00,,0829.8,5.02,0.00,22.2,20.8,00.0,31.1,23.9,03.6,0003.5,0021.72,0012.91,0012.22
2022-12-24 00:52:00,,0829.8,5.03,0.00,22.3,21.7,00.0,31.1,24.1,03.6,0003.6,0021.58,0012.76,0012.07
2022-12-24 00:53:00,,0829.8,4.94,0.00,22.4,22.1,00.0,31.1,24.3,03.6,0003.5,0020.66,0012.68,0011.99
2022-12-24 00:54:00,,0829.8,5.03,0.00,22.4,21.7,00.0,31.1,24.2,03.6,0003.4,0019.77,0012.68,0011.98
2022-12-24 00:55:00,,0829.6,5.02,0.00,22.3,21.2,00.0,31.1,24.0,03.6,0003.3,0019.95,0012.73,0012.01
2022-12-24 00:56:00,,0829.7,4.96,0.00,22.3,20.9,00.0,31.1,23.9,03.6,0003.0,0020.39,0012.81,0012.05
2022-12-24 00:57:00,,0829.8,4.99,0.00,22.2,20.7,00.0,31.1,23.9,03.6,0002.6,0020.47,0012.87,0012.14
2022-12-24 00:58:00,,0829.8,5.02,0.00,22.2,20.5,00.0,31.1,23.8,03.6,0002.1,0020.54,0012.95,0012.24
2022-12-24 00:59:00,,0829.8,5.03,0.00,22.2,20.4,00.0,31.1,23.8,03.5,0002.1,0020.46,0013.05,0012.33
